x

8779770 - Port Isabel, Tx (ptit2) Weather Station

7:18am - Tue 16th Oct 2018 All times are CDT. -5 hours from GMT.

  • Wind
    20mph, 25mph gusts
  • Sea Temp 80°f
  • Air Temp 52°f
  • Sea Pressure 1019.1mb
  • 8779770 - Port Isabel, Tx
  • 8779770 - Port Isabel, Tx

More Historic Weather Station data

Upgrade to MSW Pro to gain access to the past 30 days of data for over 8000 Wavebouys and Weather Stations around the globe.

Join

Comparision Forecast

View Surf forecast
   
Tue 10/16 7:18am 20 25 mph 1019.1mb 80f 52f
7:12am 16 26 mph 1019.4mb 80f 53f
7:06am 16 22 mph 1019.3mb 80f 52f
7:00am 15 23 mph 1019.2mb 81f -
6:54am 17 25 mph 1019.3mb 80f -
6:48am 13 24 mph 1019.3mb 80f -
6:42am 15 22 mph 1019.2mb 80f -
6:36am 15 22 mph 1019.4mb 81f -
6:30am 14 28 mph 1019mb 81f -
6:24am 21 30 mph 1019mb 81f -
6:18am 18 25 mph 1019mb 81f -
6:12am 18 25 mph 1019.1mb 81f -
6:06am 14 23 mph 1019.3mb 81f -
6:00am 16 22 mph 1019.1mb 81f -
5:54am 20 25 mph 1019.1mb 81f -
5:48am 21 28 mph 1018.9mb 81f -
5:42am 20 30 mph 1018.7mb 81f -
5:36am 17 28 mph 1018.7mb 81f -
5:30am 17 28 mph 1018.7mb 81f -
5:24am 18 29 mph 1018.6mb 81f -
5:18am 20 28 mph 1018.4mb - -
5:12am 17 24 mph 1018.7mb 81f -
5:06am 16 23 mph 1018.8mb 81f -
5:00am 16 24 mph 1018.6mb 81f -
4:54am 14 25 mph 1018.6mb 81f -
4:48am 18 25 mph 1018.5mb 81f -
4:42am 17 25 mph 1018.5mb 81f -
4:36am 17 23 mph 1018.7mb 81f -
4:30am 17 22 mph 1018.8mb 81f -
4:24am 16 28 mph 1018.6mb 81f -
4:18am 18 26 mph 1018.5mb 81f -
4:12am 20 29 mph 1018.5mb 81f -
4:06am 24 29 mph 1018.1mb 81f -
4:00am 18 29 mph 1018.3mb 81f -
3:54am 22 30 mph 1018.2mb 82f -
3:48am 22 29 mph 1018.3mb 82f -
3:42am 16 30 mph 1018.5mb 82f -
3:36am 21 28 mph 1018.5mb 82f -
3:30am 16 28 mph 1018.4mb 82f -
3:24am 17 26 mph 1018.6mb 82f -
3:18am 18 25 mph 1018.5mb 82f -
3:12am 18 28 mph 1018.5mb 82f -
3:06am 22 28 mph 1018.5mb 82f -
3:00am 23 29 mph 1018.7mb 82f -
2:18am 23 32 mph 1018.7mb 82f -
2:12am 20 29 mph 1018.9mb 82f -
2:06am 22 33 mph 1018.9mb 82f -
2:00am 22 30 mph 1019.2mb 82f -
1:54am 18 25 mph 1019.2mb 82f -
1:48am 18 28 mph 1019.1mb 82f -
1:42am 17 25 mph 1019mb 82f -
1:36am 18 25 mph 1019mb 82f -
1:30am 15 28 mph 1018.9mb 82f -
1:24am 24 33 mph 1018.7mb 82f -
1:18am 24 31 mph 1018.7mb 82f -
1:12am 22 34 mph 1018.9mb 82f -
1:06am 21 31 mph 1018.7mb 82f -
1:00am 23 33 mph 1018.9mb 82f -
12:54am 18 31 mph 1019mb 82f -
12:48am 21 28 mph 1019mb 83f -
12:42am 18 30 mph 1019.1mb 82f -
12:36am 18 26 mph 1019.3mb 82f -
12:30am 16 28 mph 1019.6mb 82f -
12:24am 18 29 mph 1019.4mb 82f -
12:18am 18 31 mph 1019.3mb 82f -
12:12am 17 32 mph 1019.5mb 82f -
12:06am 20 29 mph 1019.5mb 82f -
12:00am 22 30 mph 1019.1mb 82f -
Mon 10/15 11:54pm 23 31 mph 1018.9mb 82f -
11:48pm 22 29 mph 1018.9mb 82f -
11:42pm 22 29 mph 1018.8mb 82f -
11:36pm 16 24 mph 1018.9mb 82f -
11:30pm 22 32 mph 1019mb 82f -
11:24pm 21 30 mph 1019.1mb 82f -
11:18pm 22 30 mph 1019.1mb 82f -
11:12pm 21 28 mph 1018.9mb 83f -
11:06pm 22 30 mph 1018.8mb 83f -
11:00pm 18 31 mph 1018.9mb 83f -
10:54pm 22 30 mph 1018.5mb 83f -
10:48pm 20 29 mph 1018.5mb 83f -
10:42pm 17 24 mph 1018.6mb 83f -
10:36pm 20 25 mph 1018.4mb 83f -
10:30pm 20 28 mph 1018.2mb 83f -
10:24pm 21 31 mph 1018mb 83f -
10:18pm 22 30 mph 1017.8mb 83f -
10:12pm 21 30 mph 1018mb 83f -
10:06pm 16 26 mph 1018mb 83f -
10:00pm 20 26 mph 1017.9mb 83f -
9:54pm 18 25 mph 1018mb 83f -
9:48pm 22 30 mph - - -
9:42pm 20 29 mph 1017.7mb 83f -
9:36pm 22 29 mph 1017.6mb 83f -
9:30pm 20 29 mph 1017.6mb 83f -
9:24pm 20 26 mph 1017.4mb 83f -
9:18pm 17 24 mph 1017.3mb 83f -
9:12pm 18 28 mph 1017.4mb 83f -
9:06pm 18 28 mph 1017.5mb 83f -
9:00pm 22 28 mph 1017.5mb 83f -
8:42pm 21 29 mph 1017.1mb 83f -
8:36pm 20 28 mph 1016.9mb 83f -
8:30pm 21 26 mph 1017mb 83f -
8:24pm 22 30 mph 1016.9mb 83f -
8:18pm 22 28 mph 1016.5mb 83f -
8:12pm 22 28 mph 1016.7mb 83f -
8:06pm 18 25 mph 1016.8mb 83f -
8:00pm 15 24 mph 1016.7mb 83f -
6:42pm 22 28 mph 1014.9mb 84f -
6:36pm 23 32 mph 1014.7mb 84f -
6:30pm 25 33 mph 1014.3mb 84f -
6:24pm 23 30 mph 1014.5mb 84f -
6:18pm 22 30 mph 1014.4mb 84f -
6:12pm 22 30 mph 1014.4mb 84f -
6:06pm 24 31 mph 1014.3mb 84f -
6:00pm 23 29 mph 1014.4mb 84f -
5:54pm 22 29 mph 1014.3mb 84f -
5:48pm 22 29 mph 1014.3mb - -
5:42pm 21 28 mph 1014.4mb 84f -
5:36pm 22 30 mph 1014.4mb 84f -
5:30pm 22 31 mph 1014.4mb 84f -
5:24pm 23 29 mph 1014.5mb 84f -
5:18pm 20 29 mph 1014.5mb 84f -
5:12pm 22 31 mph 1014.3mb 84f -
5:06pm 21 31 mph 1014.2mb 84f -
5:00pm 20 30 mph 1014.2mb 84f -
3:54pm 24 32 mph 1013.5mb 84f -
3:48pm 22 34 mph 1013.4mb 84f -
3:42pm 22 31 mph 1013.3mb 84f -
3:36pm 21 29 mph 1013.4mb 84f -
3:30pm 24 31 mph 1013.2mb 84f -
3:24pm 21 29 mph 1013.2mb 84f -
3:18pm 24 31 mph 1012.7mb 84f -
3:12pm 20 29 mph 1012.6mb 84f -
3:06pm 21 31 mph 1012.8mb 84f -
3:00pm 15 26 mph 1012.8mb 84f -
2:54pm 14 28 mph 1012.4mb 84f -
2:48pm 16 22 mph 1012.4mb 84f -
2:42pm 17 22 mph 1011.6mb 84f 86f
2:36pm 14 20 mph 1011.7mb 84f 86f
2:30pm 14 22 mph 1011.7mb 84f 85f
2:24pm 15 20 mph 1011.7mb 84f 85f
2:18pm 17 22 mph 1011.8mb 84f -
2:12pm 18 22 mph 1011.7mb 84f 85f
2:06pm 16 22 mph 1011.9mb 84f 86f
2:00pm 15 21 mph 1012.1mb 84f 85f
1:54pm 15 22 mph 1012mb 84f 85f
1:48pm 14 20 mph 1012mb 84f 86f
1:42pm 16 21 mph 1012mb 84f 86f
1:36pm 17 21 mph 1012mb 84f 86f
1:30pm 16 22 mph 1012mb 84f 85f
1:24pm 16 21 mph 1012.1mb 84f 86f
1:18pm 15 18 mph 1012.3mb 84f 86f
1:12pm 15 18 mph 1012.3mb 84f 86f
1:06pm 18 22 mph 1012.2mb 84f 87f
1:00pm 17 22 mph 1012.2mb 84f 87f
12:54pm 16 22 mph 1012.1mb 84f 86f
12:48pm 14 17 mph 1012.2mb 84f 86f
12:42pm 14 18 mph 1012.3mb 84f 86f
12:36pm 14 20 mph 1012.4mb 84f 86f
12:30pm 16 20 mph 1012.4mb 84f 86f
12:24pm 14 20 mph 1012.6mb 84f 86f
12:18pm 13 20 mph 1012.7mb 84f 87f
12:12pm 15 20 mph 1012.8mb 84f 86f
12:06pm 16 20 mph 1012.8mb 84f 86f
12:00pm 16 20 mph 1012.8mb 84f 85f
11:54am 14 18 mph 1012.9mb 84f 85f
11:48am 14 18 mph 1012.9mb 84f 85f
11:42am 14 17 mph 1013mb 84f 85f
11:36am 15 20 mph 1013mb 84f 85f
11:30am 14 20 mph 1013mb 84f 85f
11:24am 15 18 mph 1013mb 84f 85f
11:18am 16 21 mph 1012.9mb 84f -
11:12am 15 18 mph 1012.8mb 84f 85f
11:06am 16 18 mph 1012.9mb 84f 84f
11:00am 14 16 mph 1012.8mb 84f 85f
10:54am 14 16 mph 1012.8mb 84f 84f
10:48am 11 16 mph 1012.8mb 84f 85f
10:42am 14 17 mph 1012.8mb 84f 84f
10:36am 13 17 mph 1012.6mb 84f 84f
10:30am 11 15 mph 1012.6mb 84f 84f
10:24am 14 18 mph 1012.5mb 84f 84f
10:18am 14 17 mph 1012.4mb 84f 84f
10:12am 14 16 mph 1012.3mb 84f 84f
10:06am 14 17 mph 1012.2mb 84f 84f
10:00am 14 17 mph 1012mb 84f 84f
9:54am 13 18 mph 1012mb 84f 84f
9:48am 14 16 mph - - -
9:42am 11 16 mph 1012mb 84f 84f
9:36am 13 15 mph 1012mb 84f 84f
9:30am 13 16 mph 1012mb 84f 84f
9:24am 13 17 mph 1011.9mb 84f 84f
9:18am 13 16 mph 1011.8mb - -
9:12am 11 16 mph 1011.7mb 84f 84f
9:06am 10 14 mph 1011.8mb 84f 84f
9:00am 10 14 mph 1011.8mb 84f 84f
8:48am 11 15 mph 1011.7mb 84f 83f
8:42am 10 14 mph 1011.7mb 84f 83f
8:36am 10 13 mph 1011.7mb 84f 83f
8:30am 8 11 mph 1011.5mb 84f 83f
8:24am 9 14 mph 1011.5mb 84f 83f
8:18am 9 14 mph 1011.5mb 84f 83f
8:12am 9 14 mph 1011.6mb 84f 83f
8:06am 10 14 mph 1011.5mb 84f 83f
8:00am 11 14 mph 1011.5mb 84f 83f
7:42am 10 14 mph 1011.2mb 84f 83f
7:36am 9 13 mph 1011.2mb 84f 83f
7:30am 10 14 mph 1011.1mb 84f 83f
7:24am 11 14 mph 1011mb 84f 83f
7:18am 11 14 mph - - -
7:12am 10 15 mph 1010.9mb 84f 83f
7:06am 10 14 mph 1010.9mb 84f 83f
7:00am 11 14 mph 1010.8mb 84f 83f
6:54am 11 15 mph 1010.7mb 84f 83f
6:42am 14 17 mph 1010.6mb 84f 83f
6:36am 10 13 mph 1010.5mb 84f 83f
6:30am 10 14 mph 1010.5mb 84f 83f
6:24am 11 14 mph 1010.5mb 84f 83f
6:18am 11 14 mph 1010.5mb 84f 82f
6:12am 11 15 mph 1010.5mb 84f 83f
6:06am 10 14 mph 1010.5mb 84f 83f
6:00am 10 15 mph 1010.5mb 84f 83f
5:54am 11 14 mph 1010.6mb 84f 83f
5:48am 9 14 mph 1010.5mb 84f 83f
5:42am 9 13 mph 1010.5mb 84f 83f
5:36am 10 13 mph 1010.4mb 84f 83f
5:30am 9 13 mph 1010.4mb 84f 83f
5:24am 10 14 mph 1010.4mb 84f 83f
5:18am 9 13 mph 1010.4mb - -
5:12am 8 11 mph 1010.4mb 84f 83f
5:06am 9 13 mph 1010.3mb 84f 83f
5:00am 10 14 mph 1010.3mb 84f 83f
4:54am 11 14 mph 1010.2mb 84f 83f
4:48am 11 14 mph 1010.2mb 84f 83f
4:42am 11 14 mph 1010.2mb 84f 83f
4:36am 11 14 mph 1010.2mb 84f 83f
4:30am 9 11 mph 1010.2mb 84f 83f
4:24am 9 13 mph 1010.1mb 84f 83f
4:18am 9 11 mph 1010.1mb 84f 83f
4:12am 9 13 mph 1010.2mb 84f 83f
4:06am 9 11 mph 1010.3mb 84f 83f
4:00am 8 10 mph 1010.3mb 84f 83f
3:12am 9 15 mph 1010.3mb 84f 83f
3:06am 10 15 mph 1010.2mb 84f 83f
3:00am 9 13 mph 1010.3mb 84f 83f
2:54am 10 13 mph 1010.2mb 84f 83f
2:48am 9 13 mph 1010.2mb 84f -
2:42am 9 14 mph 1010.2mb 84f 83f
2:36am 11 14 mph 1010.2mb 84f 83f
2:30am 11 16 mph 1010.2mb 84f 83f
2:24am 11 15 mph 1010.2mb 84f 83f
2:18am 11 15 mph 1010.2mb 84f 83f
2:12am 11 14 mph 1010.2mb 84f 83f
2:06am 11 16 mph 1010.3mb 84f 83f
2:00am 10 15 mph 1010.3mb 84f 83f
1:18am 9 17 mph 1010.5mb 85f 83f
1:12am 13 16 mph 1010.6mb 85f 83f
1:06am 14 17 mph 1010.7mb 85f 83f
1:00am 13 17 mph 1010.7mb 85f 83f
12:54am 14 16 mph 1010.7mb 85f 83f
12:48am 13 16 mph 1010.7mb 85f 83f
12:42am 13 15 mph 1010.7mb - -
12:36am 13 17 mph 1010.9mb - -
12:30am 11 14 mph 1010.9mb - -
12:24am 11 15 mph 1010.9mb 85f 83f
12:18am 10 14 mph 1011mb 85f 83f
12:12am 11 13 mph 1011.1mb 85f 83f
12:06am 10 14 mph 1011.1mb 85f 83f
12:00am 8 13 mph 1011.1mb 85f 83f
Sun 10/14 11:54pm 8 11 mph 1011.1mb 85f 83f
11:48pm 9 11 mph 1011.2mb 85f -
11:42pm 8 11 mph 1011.2mb 85f 83f
11:36pm 8 11 mph 1011.1mb 85f 83f
11:30pm 9 11 mph 1011.1mb 85f 83f
11:24pm 9 14 mph 1011mb 85f 83f
11:18pm 8 11 mph 1011mb 85f 83f
11:12pm 9 11 mph 1010.9mb 85f 83f
11:06pm 11 16 mph 1010.9mb 85f 83f
11:00pm 13 15 mph 1011mb 85f 83f
10:18pm 14 17 mph 1010.6mb - -
10:12pm 16 18 mph 1010.5mb 85f 83f
10:06pm 15 18 mph 1010.5mb 85f 83f
10:00pm 14 18 mph 1010.5mb 85f 83f
9:12pm 14 16 mph 1010.1mb 85f 83f
9:06pm 14 16 mph 1010mb 85f 83f
9:00pm 11 16 mph 1010mb 85f 83f
8:54pm 13 15 mph 1009.9mb 85f 83f
8:48pm 11 16 mph 1009.8mb 85f 83f
8:42pm 14 17 mph 1009.7mb 85f 83f
8:36pm 15 17 mph 1009.7mb 85f 83f
8:30pm 14 16 mph 1009.6mb 85f 83f
8:24pm 11 16 mph 1009.5mb 85f 83f
8:18pm 11 15 mph 1009.5mb 85f 83f
8:12pm 13 16 mph 1009.3mb 85f 83f
8:06pm 14 16 mph 1009.2mb 85f 83f
8:00pm 13 17 mph 1009.2mb 85f 83f
7:48pm 15 20 mph 1009.1mb 85f 83f
7:42pm 15 18 mph 1009mb 85f 83f
7:36pm 15 20 mph 1008.9mb 85f 83f
7:30pm 17 20 mph 1008.9mb 85f 83f
7:24pm 18 21 mph 1008.8mb 85f 83f
7:18pm 15 18 mph 1008.8mb 85f 84f
7:12pm 13 17 mph 1008.8mb 85f 84f
7:06pm 14 17 mph 1008.7mb 85f 83f
7:00pm 15 18 mph 1008.6mb 85f 84f
6:54pm 15 17 mph 1008.5mb 85f 84f
6:48pm 14 17 mph 1008.5mb 85f 84f
6:42pm 14 17 mph 1008.5mb 85f 84f
6:36pm 11 16 mph 1008.5mb 85f 84f
6:30pm 14 20 mph 1008.5mb 85f 84f
6:24pm 15 18 mph 1008.5mb 85f 84f
6:18pm 14 17 mph 1008.5mb 85f 84f
6:12pm 14 17 mph 1008.5mb 85f 84f
6:06pm 15 18 mph 1008.5mb 85f 84f
6:00pm 15 18 mph 1008.4mb 85f 84f
5:54pm 16 20 mph 1008.4mb 85f 84f
5:48pm 13 21 mph 1008.4mb 85f 84f
5:42pm 15 20 mph 1008.3mb 85f 85f
5:36pm 14 20 mph 1008.3mb 85f 85f
5:30pm 16 21 mph 1008.3mb 85f 85f
5:24pm 14 18 mph 1008.2mb 85f 85f
5:18pm 15 20 mph 1008.2mb 85f 84f
5:12pm 17 21 mph 1008.2mb 85f 85f
5:06pm 18 22 mph 1008.1mb 85f 84f
5:00pm 15 20 mph 1008.1mb 85f 85f
4:54pm 14 20 mph 1008.2mb 85f 85f
4:48pm 15 21 mph 1008.2mb 85f 85f
4:42pm 15 20 mph 1008.2mb 85f 85f
4:36pm 14 22 mph 1008.2mb 85f 85f
4:30pm 11 21 mph 1008.2mb 85f 85f
4:24pm 14 21 mph 1008.2mb 85f 85f
4:18pm 16 20 mph 1008.2mb 85f 85f
4:12pm 14 20 mph 1008.2mb 84f 85f
4:06pm 16 20 mph 1008.2mb 84f 85f
4:00pm 15 21 mph 1008.3mb 84f 85f
3:54pm 15 22 mph 1008.3mb 84f 85f
3:48pm 14 18 mph 1008.4mb 84f 85f
3:42pm 13 16 mph 1008.4mb 84f 85f
3:36pm 15 22 mph 1008.4mb 84f 85f
3:30pm 14 20 mph 1008.4mb 84f 85f
3:24pm 15 21 mph 1008.4mb 84f 85f
3:18pm 13 21 mph 1008.4mb - -
3:12pm 16 21 mph 1008.4mb 84f 85f
3:06pm 14 21 mph 1008.4mb 84f 85f
3:00pm 15 20 mph 1008.5mb 84f 85f
2:54pm 16 21 mph 1008.5mb 84f 85f
2:48pm 16 20 mph 1008.5mb 84f -
2:42pm 14 21 mph 1008.6mb 84f 85f
2:36pm 18 21 mph 1008.6mb 84f 85f
2:30pm 16 20 mph 1008.7mb 84f 85f
2:24pm 15 23 mph 1008.7mb 84f 85f
2:18pm 16 22 mph 1008.8mb 84f 85f
2:12pm 16 21 mph 1008.9mb 84f 85f
2:06pm 16 22 mph 1009mb 84f 85f
2:00pm 17 23 mph 1009mb 84f 85f
1:54pm 17 21 mph 1009.1mb 84f 85f
1:48pm 16 21 mph 1009.2mb 84f -
1:42pm 17 22 mph 1009.3mb 84f 85f
1:36pm 18 23 mph 1009.4mb 84f 85f
1:30pm 17 23 mph 1009.4mb 84f 85f
1:24pm 16 21 mph 1009.4mb 84f 85f
1:18pm 18 22 mph 1009.5mb 84f 85f
1:12pm 18 22 mph 1009.6mb 84f 85f
1:06pm 20 23 mph 1009.6mb 84f 84f
1:00pm 17 23 mph 1009.7mb 84f 85f
12:54pm 17 21 mph 1009.8mb 84f 85f
12:48pm 17 23 mph 1009.8mb 84f 85f
12:42pm 16 22 mph 1009.8mb 84f 85f
12:36pm 18 22 mph 1009.8mb 84f 84f
12:30pm 18 23 mph 1009.9mb 83f 85f
12:24pm 16 23 mph 1010mb 83f 85f
12:18pm 17 22 mph 1010mb 83f -
12:12pm 20 22 mph 1010.1mb 83f 84f
12:06pm 18 23 mph 1010.2mb 83f 84f
12:00pm 18 22 mph 1010.3mb 83f 84f
11:54am 18 23 mph 1010.3mb 83f 85f
11:48am 16 21 mph 1010.4mb 83f 85f
11:42am 16 22 mph 1010.5mb 83f 84f
11:36am 18 22 mph 1010.4mb 83f 84f
11:30am 17 23 mph 1010.4mb 83f 85f
11:24am 20 22 mph 1010.4mb 83f 84f
11:18am 17 23 mph 1010.5mb 83f 85f
11:12am 17 22 mph 1010.5mb 83f 85f
11:06am 18 22 mph 1010.5mb 83f 84f
11:00am 18 23 mph 1010.5mb 83f 84f
10:54am 18 22 mph 1010.5mb 83f 84f
10:48am 18 22 mph 1010.5mb 83f 84f
10:42am 20 22 mph 1010.5mb 83f 84f
10:30am 20 23 mph 1010.5mb 83f 84f
10:24am 18 22 mph 1010.4mb 83f 84f
10:18am 18 23 mph 1010.4mb - -
10:12am 18 23 mph 1010.4mb 83f 84f
10:06am 20 23 mph 1010.4mb 83f 84f
10:00am 18 23 mph 1010.3mb 83f 84f
9:54am 17 23 mph 1010.2mb 83f 83f
9:48am 16 22 mph 1010.2mb 83f 83f
9:42am 17 22 mph 1010.2mb 83f 83f
9:36am 17 22 mph 1010.2mb 83f 83f
9:30am 17 23 mph 1010.2mb 83f 83f
9:24am 18 22 mph 1010.1mb 83f 83f
9:18am 18 23 mph 1010mb - -
9:12am 18 22 mph 1010mb 83f 83f
9:06am 18 22 mph 1009.9mb 83f 83f
9:00am 18 22 mph 1009.8mb 83f 83f
8:18am 17 21 mph 1009.3mb 83f 82f
8:12am 16 21 mph 1009.2mb 83f 82f
8:06am 15 21 mph 1009.1mb 83f 82f
8:00am 15 20 mph 1009.1mb 84f 82f
7:54am 16 22 mph 1009mb 84f 82f
7:48am 15 21 mph 1009mb 84f 82f
7:42am 16 22 mph 1009mb 84f 82f
7:36am 18 22 mph 1009mb 84f 82f
7:30am 18 21 mph 1008.9mb 84f 82f
7:24am 17 21 mph 1008.9mb 84f 82f
7:18am 20 23 mph 1008.8mb - -
7:12am 17 22 mph 1008.8mb 84f 82f
7:06am 20 23 mph 1008.8mb 84f 82f
7:00am 16 21 mph 1008.7mb 84f 82f
6:54am 18 22 mph 1008.7mb 84f 82f
6:48am 16 22 mph 1008.7mb 84f 82f
6:42am 18 22 mph 1008.7mb 84f 82f
6:36am 18 22 mph 1008.7mb 84f 82f
6:30am 18 23 mph 1008.6mb 84f 82f
6:24am 18 22 mph 1008.6mb 84f 82f
6:18am 20 24 mph 1008.5mb 84f -
6:12am 17 23 mph 1008.5mb 84f 82f
6:06am 16 22 mph 1008.5mb 84f 82f
6:00am 17 23 mph 1008.4mb 84f 82f
5:00am 21 26 mph 1008.1mb 84f 82f
3:54am 16 22 mph 1008.6mb 84f 82f
3:48am 16 22 mph - - -
3:42am 17 22 mph 1008.6mb 84f 82f
3:36am 18 23 mph 1008.6mb 84f 82f
3:30am 17 22 mph 1008.6mb 84f 82f
3:24am 16 23 mph 1008.8mb 84f 82f
3:18am 18 23 mph 1008.8mb - -
3:12am 17 21 mph 1008.8mb 84f 82f
3:06am 17 22 mph 1008.8mb 84f 83f
3:00am 16 21 mph 1008.8mb 84f 83f
2:54am 16 21 mph 1008.9mb 84f 82f
2:48am 15 22 mph 1009mb 84f -
2:42am 18 22 mph 1009mb 84f 83f
2:36am 15 21 mph 1009mb 84f 83f
2:30am 15 20 mph 1009mb 84f 83f
2:24am 14 18 mph 1009mb 84f 83f
2:18am 15 20 mph 1009mb 84f 83f
2:12am 13 20 mph 1009mb 84f 82f
2:06am 14 18 mph 1009mb 84f 83f
2:00am 15 20 mph 1009mb 84f 83f
1:54am 14 20 mph 1009mb 84f 83f
1:48am 16 21 mph 1008.9mb 84f 83f
1:42am 15 22 mph 1008.8mb 84f 83f
1:36am 16 21 mph 1008.8mb 84f 83f
1:30am 15 21 mph 1008.7mb 84f 83f
1:24am 17 24 mph 1008.7mb 84f 83f
1:18am 17 23 mph 1008.7mb 84f 83f
1:12am 17 21 mph 1008.6mb 84f 83f
1:06am 16 24 mph 1008.6mb 84f 83f
1:00am 17 23 mph 1008.6mb 84f 83f
12:54am 20 25 mph 1008.6mb 84f 83f
12:48am 18 22 mph - - -
12:42am 20 24 mph 1008.6mb 84f 83f
12:36am 16 24 mph 1008.6mb 84f 83f
12:30am 20 24 mph 1008.5mb 84f 83f
12:24am 18 23 mph 1008.4mb 84f 83f
12:18am 21 26 mph 1008.3mb 84f 83f
12:12am 22 25 mph 1008.2mb 84f 83f
12:06am 22 28 mph 1008mb 84f 83f
12:00am 23 28 mph 1007.9mb 84f 83f
Sat 10/13 11:54pm 23 31 mph 1007.9mb 84f 83f
11:48pm 23 28 mph - - -
11:42pm 22 28 mph 1008.1mb 84f 83f
11:36pm 22 26 mph 1008.1mb 84f 83f
11:30pm 24 29 mph 1008.1mb 84f 83f
11:24pm 22 25 mph 1008.3mb 84f 83f
11:18pm 20 26 mph 1008.3mb 84f 83f
11:12pm 21 24 mph 1008.4mb 84f 83f
11:06pm 16 23 mph 1008.5mb 84f 83f
11:00pm 18 23 mph 1008.5mb 84f 83f
10:54pm 17 22 mph 1008.5mb 84f 83f
10:48pm 20 24 mph 1008.6mb 84f 83f
10:42pm 18 24 mph 1008.7mb 84f 83f
10:36pm 18 25 mph 1008.7mb 84f 83f
10:30pm 21 25 mph 1008.6mb 84f 83f
10:24pm 18 24 mph 1008.6mb 84f 83f
10:18pm 20 25 mph 1008.6mb - -
10:12pm 18 24 mph 1008.6mb 84f 83f
10:06pm 17 22 mph 1008.7mb 84f 83f
10:00pm 16 21 mph 1008.7mb 84f 83f
9:54pm 16 20 mph 1008.8mb 84f 83f
9:48pm 16 21 mph 1008.9mb 84f 83f
9:42pm 16 18 mph 1008.9mb 84f 83f
9:36pm 15 18 mph 1008.9mb 84f 83f
9:30pm 14 17 mph 1008.9mb 84f 83f
9:24pm 14 17 mph 1008.8mb 84f 83f
9:18pm 13 20 mph 1008.7mb 84f 83f
9:12pm 15 18 mph 1008.5mb 84f 83f
9:06pm 15 20 mph 1008.5mb 84f 83f
9:00pm 16 20 mph 1008.4mb 84f 83f
8:54pm 15 18 mph 1008.3mb 84f 83f
8:48pm 15 18 mph - - -
8:42pm 16 22 mph 1008.3mb 84f 83f
8:36pm 15 20 mph 1008.2mb 84f 83f
8:30pm 14 18 mph 1008.2mb 84f 83f
8:24pm 14 18 mph 1008.2mb 84f 84f
8:18pm 14 21 mph 1008.1mb 84f 84f
8:12pm 15 21 mph 1008mb 84f 84f
8:06pm 15 20 mph 1007.9mb 84f 83f
8:00pm 17 21 mph 1007.9mb 84f 84f
7:48pm 16 20 mph 1007.9mb 84f 83f
7:42pm 15 18 mph 1007.8mb 84f 84f
7:36pm 16 22 mph 1007.8mb 84f 84f
7:30pm 16 22 mph 1007.8mb 84f 84f
7:24pm 15 21 mph 1007.7mb 84f 84f
7:18pm 17 21 mph 1007.7mb 84f 84f
7:12pm 15 21 mph 1007.6mb 84f 84f
7:06pm 16 23 mph 1007.6mb 84f 84f
7:00pm 14 22 mph 1007.5mb 84f 84f
6:54pm 20 24 mph 1007.5mb 84f 84f
6:48pm 15 21 mph 1007.5mb 84f -
6:42pm 16 22 mph 1007.4mb 84f 84f
6:36pm 17 24 mph 1007.3mb 84f 84f
6:30pm 16 26 mph 1007.3mb 84f 85f
6:24pm 20 24 mph 1007.2mb 84f 85f
6:18pm 21 25 mph 1007.1mb 84f 85f
6:12pm 18 25 mph 1007.1mb 84f 85f
6:06pm 21 28 mph 1007mb 84f 85f
6:00pm 20 25 mph 1007mb 84f 85f
5:18pm 18 24 mph 1007.3mb 84f -
5:12pm 22 25 mph 1007.3mb 84f 85f
5:06pm 18 25 mph 1007.3mb 84f 86f
5:00pm 20 26 mph 1007.2mb 84f 85f
4:54pm 22 26 mph 1007.2mb 84f 85f
4:48pm 18 29 mph 1007.3mb - -
4:42pm 20 25 mph 1007.3mb 84f 86f
4:36pm 21 29 mph 1007.2mb 84f 86f
4:30pm 21 26 mph 1007.2mb 84f 86f
4:24pm 21 28 mph 1007.3mb 84f 86f
4:18pm 22 26 mph 1007.3mb 84f 86f
4:12pm 22 26 mph 1007.2mb 84f 86f
4:06pm 18 28 mph 1007.2mb 84f 86f
4:00pm 22 28 mph 1007.2mb 84f 86f
3:54pm 25 31 mph 1007.1mb 84f 86f
3:48pm 22 30 mph - - -
3:42pm 23 29 mph 1007.1mb 84f 86f
3:36pm 25 31 mph 1007.1mb 84f 86f
3:30pm 22 29 mph 1007.2mb 84f 87f
3:24pm 23 30 mph 1007.3mb 84f 86f
3:18pm 23 28 mph 1007.3mb 84f 86f
3:12pm 21 28 mph 1007.4mb 84f 87f
3:06pm 22 29 mph 1007.5mb 84f 87f
3:00pm 22 29 mph 1007.6mb 84f 86f
2:54pm 22 28 mph 1007.6mb 84f 87f
2:48pm 23 29 mph - - -
2:42pm 18 29 mph 1007.8mb 84f 87f
2:36pm 22 30 mph 1007.9mb 84f 87f
2:30pm 23 28 mph 1008.1mb 84f 87f
2:24pm 21 30 mph 1008.2mb 84f 88f
2:18pm 23 29 mph 1008.3mb 84f 87f
2:12pm 24 31 mph 1008.3mb 84f 87f
2:06pm 24 30 mph 1008.4mb 84f 87f
2:00pm 22 29 mph 1008.6mb 84f 87f
1:54pm 22 30 mph 1008.7mb 84f 87f
1:48pm 23 29 mph 1008.8mb 84f -
1:42pm 22 26 mph 1008.8mb 84f 87f
1:36pm 21 29 mph 1008.8mb 84f 86f
1:30pm 25 29 mph 1008.9mb 84f 87f
1:24pm 22 28 mph 1009.1mb 84f 87f
1:18pm 21 29 mph 1009.2mb 83f 87f
1:12pm 21 28 mph 1009.2mb 83f 86f
1:06pm 21 29 mph 1009.2mb 83f 86f
1:00pm 21 29 mph 1009.4mb 83f 86f
12:54pm 17 29 mph 1009.5mb 83f 87f
12:48pm 24 29 mph 1009.6mb 83f 87f
12:42pm 21 30 mph 1009.7mb 83f 87f
12:36pm 20 28 mph 1009.8mb 83f 87f
12:30pm 21 26 mph 1009.7mb 83f 86f
12:24pm 23 29 mph 1009.8mb 83f 87f
12:18pm 22 30 mph 1009.8mb 83f -
12:12pm 24 30 mph 1009.8mb 83f 87f
12:06pm 24 29 mph 1009.8mb 83f 86f
12:00pm 22 29 mph 1009.8mb 83f 86f
11:54am 21 29 mph 1010mb 83f 86f
11:48am 20 26 mph 1010mb 83f 86f
11:42am 17 28 mph 1010mb 83f 86f
11:36am 21 29 mph 1010mb 83f 86f
11:30am 23 31 mph 1009.9mb 83f 86f
11:24am 22 30 mph 1010mb 83f 86f
11:18am 23 29 mph 1010mb - -
11:12am 24 29 mph 1010.1mb 83f 85f
11:06am 22 28 mph 1010.2mb 83f 86f
11:00am 22 26 mph 1010.2mb 83f 85f
9:54am 22 28 mph 1009.9mb 83f 84f
9:48am 20 28 mph 1010mb - -
9:42am 20 26 mph 1010mb 83f 84f
9:36am 16 24 mph 1010mb 83f 84f
9:30am 20 26 mph 1009.9mb 83f 84f
9:24am 20 25 mph 1009.8mb 83f 84f
9:18am 17 24 mph 1009.7mb 83f 84f
9:12am 17 22 mph 1009.7mb 83f 83f
9:06am 16 22 mph 1009.8mb 83f 83f
9:00am 17 22 mph 1009.7mb 83f 83f
8:54am 18 24 mph 1009.6mb 83f 83f
8:48am 15 18 mph 1009.6mb - -
8:42am 15 18 mph 1009.6mb 83f 83f
8:36am 15 20 mph 1009.6mb 83f 82f
8:30am 16 21 mph 1009.5mb 83f 82f
8:24am 16 22 mph 1009.5mb 83f 82f
8:18am 17 23 mph 1009.5mb 83f -
8:12am 21 24 mph 1009.4mb 83f 82f
8:06am 15 18 mph 1009.4mb 83f 82f
8:00am 15 20 mph 1009.5mb 83f 82f
7:54am 16 20 mph 1009.4mb 83f 82f
7:48am 14 18 mph 1009.5mb 83f 82f
7:42am 15 18 mph 1009.4mb 83f 82f
7:36am 15 20 mph 1009.5mb 83f 82f
7:30am 11 15 mph 1009.5mb 83f 81f
7:24am 13 20 mph 1009.5mb 83f 81f
7:12am 14 20 mph 1009.5mb 83f 81f
7:06am 13 16 mph 1009.4mb 83f 82f
7:00am 13 17 mph 1009.4mb 83f 82f
6:54am 14 15 mph 1009.5mb 83f 82f
6:48am 11 16 mph 1009.6mb - -
6:42am 11 14 mph 1009.6mb 83f 82f
6:36am 10 15 mph 1009.5mb 83f 82f
6:30am 13 21 mph 1009.5mb 83f 82f
6:24am 17 21 mph 1009.3mb 83f 82f
6:18am 15 16 mph 1009.3mb - -
6:12am 13 17 mph 1009.4mb 83f 81f
6:06am 10 14 mph 1009.4mb 83f 82f
6:00am 10 14 mph 1009.4mb 83f 82f
5:54am 14 16 mph 1009.4mb 83f 82f
5:48am 11 17 mph 1009.3mb 83f -
5:42am 14 17 mph 1009.3mb 83f 82f
5:36am 14 18 mph 1009.3mb 83f 82f
5:30am 13 17 mph 1009.3mb 83f 82f
5:18am 16 21 mph - - -
5:12am 15 20 mph 1009.2mb 83f 82f
5:00am 13 18 mph 1009.3mb 83f 82f
4:48am 14 17 mph 1009.3mb 83f 82f
4:42am 14 18 mph 1009.2mb 83f 82f
4:36am 17 21 mph 1009.1mb 83f 82f
4:30am 14 20 mph 1009.2mb 83f 83f
4:24am 15 20 mph 1009.3mb 83f 82f
4:18am 13 16 mph 1009.4mb 83f 82f
4:12am 11 16 mph 1009.5mb 83f 82f
4:06am 10 15 mph 1009.6mb 83f 82f
4:00am 9 14 mph 1009.7mb 83f 82f
3:54am 11 17 mph 1009.7mb 83f 82f
3:48am 13 18 mph 1009.7mb 83f 82f
3:42am 13 17 mph 1009.7mb 83f 82f
3:36am 14 20 mph 1009.7mb 83f 82f
3:30am 15 18 mph 1009.8mb 83f 82f
3:24am 15 22 mph 1009.8mb 83f 82f
3:18am 16 23 mph 1009.7mb 83f -
3:12am 11 15 mph 1009.8mb 83f 83f
3:06am 11 17 mph 1009.9mb 83f 83f
3:00am 15 18 mph 1010mb 83f 83f
2:18am 17 20 mph 1010mb 83f -
2:12am 15 21 mph 1010mb 83f 83f
2:06am 17 21 mph 1010mb 83f 83f
1:42am 20 24 mph 1009.9mb 83f 83f
1:36am 18 22 mph 1009.9mb 83f 83f
1:30am 16 22 mph 1010mb 83f 83f
1:24am 17 22 mph 1010mb 83f 83f
1:18am 16 23 mph 1010mb 83f 83f
1:12am 17 24 mph 1010mb 83f 83f
1:06am 17 23 mph 1010mb 83f 83f
1:00am 18 23 mph 1010.1mb 83f 83f
12:54am 16 20 mph 1010.1mb 83f 83f
12:48am 15 20 mph 1010.1mb 83f 83f
12:42am 16 21 mph 1010.2mb 83f -
12:36am 16 21 mph 1010.2mb 83f -
12:30am 17 21 mph 1010.3mb 83f -
12:24am 16 21 mph 1010.4mb 83f 83f
12:18am 16 21 mph 1010.4mb 83f 83f
12:12am 16 20 mph 1010.4mb 83f 83f
12:06am 14 17 mph 1010.5mb 83f 82f
12:00am 15 17 mph 1010.6mb 83f 82f
Fri 10/12 11:54pm 16 20 mph 1010.6mb 83f 83f
11:48pm 14 18 mph 1010.7mb 83f 83f
11:42pm 14 18 mph 1010.8mb 83f 83f
11:36pm 14 18 mph 1010.8mb 83f 83f
11:30pm 15 20 mph 1010.8mb 83f 83f
11:24pm 15 20 mph 1010.9mb 83f 83f
11:18pm 13 15 mph 1010.8mb 83f 83f
11:12pm 11 17 mph 1010.8mb 83f 83f
11:06pm 11 16 mph 1010.8mb 83f 83f
11:00pm 13 18 mph 1010.9mb 83f 83f
10:18pm 14 18 mph 1010.7mb - -
10:12pm 11 20 mph 1010.6mb 83f 83f
10:06pm 10 16 mph 1010.6mb 83f 83f
10:00pm 14 17 mph 1010.6mb 83f 83f
9:54pm 13 16 mph 1010.6mb 83f 83f
9:48pm 13 16 mph 1010.6mb 84f 83f
9:42pm 11 16 mph 1010.6mb 84f 83f
9:36pm 13 17 mph 1010.5mb 84f 83f
9:30pm 13 16 mph 1010.4mb 84f 83f
9:24pm 10 16 mph 1010.4mb 84f 83f
9:18pm 13 17 mph - - -
9:12pm 13 18 mph 1010.3mb 84f 83f
9:06pm 13 17 mph 1010.2mb 84f 83f
9:00pm 13 17 mph 1010.2mb 84f 83f
8:18pm 13 15 mph 1009.8mb 84f 83f
8:12pm 14 17 mph 1009.8mb 84f 83f
8:06pm 13 16 mph 1009.8mb 84f 83f
8:00pm 11 17 mph 1009.7mb 84f 83f
7:54pm 14 16 mph 1009.7mb 84f 83f
7:48pm 14 18 mph 1009.7mb 84f 83f
7:42pm 11 16 mph 1009.7mb 84f 83f
7:36pm 13 18 mph 1009.6mb 84f 83f
7:30pm 13 18 mph 1009.6mb 84f 83f
7:24pm 11 16 mph 1009.7mb 84f 83f
7:18pm 13 16 mph 1009.6mb 84f -
7:12pm 13 16 mph 1009.6mb 84f 83f
7:06pm 11 15 mph 1009.6mb 84f 83f
7:00pm 13 16 mph 1009.6mb 84f 83f
6:48pm 14 16 mph 1009.6mb 84f -
6:42pm 14 16 mph 1009.6mb 84f 83f
6:36pm 13 17 mph 1009.7mb 84f 83f
6:30pm 17 20 mph 1009.7mb 84f 83f
6:24pm 11 18 mph 1009.8mb 84f 83f
6:18pm 16 20 mph 1009.7mb 84f -
6:12pm 14 16 mph 1009.7mb 84f 83f
6:06pm 13 17 mph 1009.8mb 84f 83f
6:00pm 16 20 mph 1009.8mb 84f 84f
5:54pm 11 16 mph 1009.8mb 84f 84f
5:48pm 13 18 mph 1009.9mb - -
5:42pm 16 21 mph 1009.8mb 84f 84f
5:36pm 14 17 mph 1009.8mb 84f 84f
5:30pm 13 20 mph 1009.8mb 84f 84f
5:24pm 13 18 mph 1009.8mb 84f 84f
5:18pm 14 20 mph 1009.7mb 84f 84f
5:12pm 14 20 mph 1009.8mb 84f 84f
5:06pm 17 21 mph 1009.9mb 84f 84f
5:00pm 14 18 mph 1009.9mb 84f 84f
4:54pm  -  mph 1009.9mb 84f 84f
4:30pm 14 23 mph 1009.9mb 84f 84f
4:24pm 17 22 mph 1010mb 84f 84f
4:18pm 17 23 mph 1010.1mb 84f 84f
4:12pm 20 22 mph 1010.1mb 84f 84f
4:06pm 16 22 mph 1010.2mb 84f 84f
4:00pm 16 22 mph 1010.2mb 84f 84f
3:54pm 15 22 mph 1010.3mb 84f 85f
3:48pm 17 22 mph 1010.4mb 84f 84f
3:42pm 14 22 mph 1010.5mb 83f 84f
3:36pm 17 22 mph 1010.5mb 83f 84f
3:30pm 18 22 mph 1010.6mb 83f 84f
3:24pm 17 21 mph 1010.6mb 83f 84f
3:18pm 15 21 mph 1010.7mb 83f 85f
3:12pm 15 21 mph 1010.8mb 83f 84f
3:06pm 16 22 mph 1010.9mb 83f 85f
3:00pm 17 22 mph - - -
2:54pm 15 22 mph 1011.1mb 83f 85f
2:48pm 16 22 mph 1011.2mb 83f 84f
2:42pm 16 23 mph 1011.4mb 83f 84f
2:36pm 18 22 mph 1011.4mb 83f 84f
2:30pm 17 23 mph 1011.6mb 83f 85f
2:24pm 17 23 mph 1011.7mb 83f 85f
2:18pm 18 23 mph 1011.8mb 83f 84f
2:12pm 16 21 mph 1011.9mb 83f 84f
2:06pm 11 18 mph 1012.1mb 83f 84f
2:00pm 16 20 mph 1012.1mb 83f -
1:54pm 16 23 mph 1012.3mb 83f 83f
1:48pm 13 18 mph 1012.3mb 83f 84f
1:42pm 13 20 mph 1012.4mb 83f 84f
1:36pm 13 18 mph 1012.5mb 83f 84f
1:30pm 11 20 mph 1012.6mb 83f 84f
1:24pm 14 20 mph 1012.7mb 83f 84f
1:18pm 13 21 mph 1012.8mb 83f 84f
1:12pm 14 17 mph 1012.9mb 83f 84f